FW0705 Weather Reports


time (UTC)temp
C
wind
direction
speed
KPH
gust
KPH
rain 1hr
cm
rain 24hr
cm
rain mn
cm
humidity
%
barometer
mb
20260506030331 6 83 1.6 11.3 0.00 0.00 0.00 76 1014.5
20260506023330 6 80 1.6 11.3 0.00 0.00 0.00 75 1014.3
20260506020330 6 95 0.0 6.4 0.00 0.00 0.00 75 1014.4
20260506013330 6 84 1.6 4.8 0.00 0.00 0.00 73 1014.6
20260506010331 6 87 0.0 8.0 0.00 0.00 0.00 74 1014.5
20260506003330 6 217 3.2 8.0 0.00 0.00 0.00 78 1014.7
20260506001723 6 159 1.6 8.0 0.00 0.00 0.00 78 1014.7
20260505233329 6 223 1.6 8.0 0.00 0.00 0.00 79 1014.9
20260505230343 6 166 1.6 8.0 0.00 0.00 0.00 80 1014.9
20260505223330 7 46 1.6 11.3 0.00 0.00 0.00 80 1014.9
20260505220332 7 78 4.8 20.9 0.00 0.00 0.00 79 1015.0
20260505213333 7 165 1.6 14.5 0.00 0.00 0.00 79 1014.8
20260505210330 7 46 4.8 17.7 0.00 0.00 0.00 80 1014.7
20260505203329 7 121 6.4 17.7 0.00 0.00 0.00 79 1014.4
20260505201723 8 86 4.8 19.3 0.00 0.00 0.00 80 1014.5
20260505193328 8 91 1.6 14.5 0.00 0.00 0.00 80 1014.3
20260505190328 9 5 3.2 12.9 0.00 0.00 0.00 79 1014.1
20260505180322 10 78 3.2 14.5 0.00 0.00 0.00 79 1013.7
20260505174713 10 61 1.6 12.9 0.00 0.00 0.00 78 1013.8
20260505170334 11 54 1.6 6.4 0.00 0.00 0.00 74 1013.7
20260505163322 12 292 1.6 6.4 0.00 0.00 0.00 70 1013.6
20260505151710 12 355 1.6 6.4 0.00 0.00 0.00 66 1013.8
20260505140320 11 47 3.2 6.4 0.00 0.00 0.00 68 1013.8
20260505123318 11 28 3.2 14.5 0.00 0.00 0.00 66 1013.8
20260505120318 12 39 1.6 12.9 0.00 0.00 0.00 65 1013.7
20260505113318 12 47 3.2 9.7 0.00 0.00 0.00 66 1013.9
20260505110318 12 54 1.6 12.9 0.00 0.00 0.00 65 1014.0
20260505100319 12 45 3.2 16.1 0.00 0.00 0.00 64 1014.2
20260505093315 11 330 1.6 11.3 0.00 0.00 0.00 71 1014.1
20260505090316 12 0 3.2 12.9 0.00 0.00 0.00 73 1014.3
20260505084701 11 333 3.2 8.0 0.00 0.00 0.00 77 1014.3
20260505073317 8 18 1.6 6.4 0.00 0.00 0.00 88 1014.4
20260505070316 8 348 0.0 0.0 0.00 0.00 0.00 87 1014.5
20260505063317 7 302 0.0 0.0 0.00 0.00 0.00 90 1014.6
20260505060316 6 302 0.0 0.0 0.00 0.00 0.00 94 1014.6
20260505053314 3 302 0.0 0.0 0.00 0.00 0.00 95 1014.5
20260505050326 3 302 0.0 0.0 0.00 0.00 0.00 95 1014.3
20260505040313 3 302 0.0 0.0 0.00 0.00 0.00 94 1014.0
20260505034654 3 302 0.0 1.6 0.00 0.00 0.00 94 1014.1